sat.trackr.live / text

‹ back to catalog

STARLINK-34111

NORAD 64041 · 2025-102V

PAYLOAD ACTIVE UNKNOWN

§ Identity

Operator
Country
US
Launch date
2025-05-16
Launch site
AFWTR
Launch vehicle
Mass (kg)
RCS (m²)

Purposes: comms

External: N2YO · Heavens-Above · Gunter

§ Orbital elements

Epoch: 2026-09-20T05:27:42.592320Z

Period
94.14 min
Inclination
70.0014°
Eccentricity
0.0004563
Mean motion
15.29602528 rev/d
Perigee alt
473.9 km
Apogee alt
480.1 km
Semi-major
6,855.1 km
B*
2.3455e-4
RAAN
341.4953°
Arg perigee
273.7059°
Mean anomaly
86.3595°
Rev number
7,493

§ Raw data

STARLINK-341111 64041U 25102V   26263.22757630  .00006626  00000+0  23455-3 0  99972 64041  70.0014 341.4953 0004563 273.7059  86.3595 15.29602528 74938

JSON: /api/v1/satellites/64041 · /tle

For live sub-satellite position, see the globe view (requires WebGL).

§ Visibility from observer

Set your observer location to see the next 7 days of passes ≥ 10°. The values pass through the URL so the page stays shareable.

No JS? Fill the form by hand. The geolocation button needs JavaScript.